Terminal Aerodrome Forecast
Issued by NWS

Home | Current Version | Previous Version | Text Only | Print | Product List | Glossary On
Versions: 1 2 3 4 5 6 7 8 9 10 11 12 13 14 15 16
000
FTUS46 KSEW 031100
TAFHQM
TAF
KHQM 031125Z 0312/0412 28005KT P6SM SCT025 BKN035 BKN060
     FM031800 23010KT P6SM BKN030 BKN060
     FM032100 25010KT P6SM SCT035 BKN080=

USA.gov is the U.S. government's official web portal to all federal, state and local government web resources and services.